EW5612 Weather Reports


Display with metric or nautical units.
time (UTC)temp
F
wind
direction
speed
MPH
gust
MPH
rain 1hr
in
rain 24hr
in
rain mn
in
humidity
%
barometer
mb
20260831005204 92 121 2.0 3.0 0.00 0.00 0.00 54 1011.4
20260831004203 94 129 0.0 3.0 0.00 0.00 0.00 50 1011.2
20260831003703 94 113 0.0 7.0 0.00 0.00 0.00 47 1011.1
20260831003203 95 111 0.0 3.0 0.00 0.00 0.00 43 1011.0
20260831002704 95 107 0.0 2.0 0.00 0.00 0.00 42 1010.8
20260831002203 96 111 0.0 3.0 0.00 0.00 0.00 41 1010.7
20260831001703 96 110 0.0 3.0 0.00 0.00 0.00 41 1010.8
20260831001204 96 111 0.0 2.0 0.00 0.00 0.00 41 1010.7
20260831000703 96 112 0.0 0.0 0.00 0.00 0.00 40 1010.7
20260831000204 96 112 0.0 0.0 0.00 0.00 0.00 40 1010.7
20260830235203 97 114 0.0 0.0 0.00 0.00 0.00 40 1010.7
20260830234704 97 114 0.0 0.0 0.00 0.00 0.00 40 1010.8
20260830233703 97 116 0.0 0.0 0.00 0.00 0.00 40 1010.9
20260830233204 97 116 0.0 0.0 0.00 0.00 0.00 40 1011.0
20260830232704 97 116 0.0 0.0 0.00 0.00 0.00 40 1011.0
20260830232204 97 116 0.0 0.0 0.00 0.00 0.00 39 1011.0
20260830231704 97 108 0.0 0.0 0.00 0.00 0.00 39 1011.0
20260830231204 97 107 0.0 0.0 0.00 0.00 0.00 39 1011.1
20260830230704 98 116 0.0 0.0 0.00 0.00 0.00 38 1011.0
20260830230204 99 125 0.0 0.0 0.00 0.00 0.00 38 1011.0
20260830225204 99 146 0.0 0.0 0.00 0.00 0.00 38 1011.0
20260830224703 99 99 0.0 0.0 0.00 0.00 0.00 38 1011.0
20260830224204 99 98 0.0 0.0 0.00 0.00 0.00 38 1011.0
20260830223704 99 109 0.0 0.0 0.00 0.00 0.00 38 1011.0
20260830223204 99 77 0.0 0.0 0.00 0.00 0.00 38 1010.9
20260830222707 99 33 0.0 0.0 0.00 0.00 0.00 39 1011.0
20260830222204 99 79 0.0 0.0 0.00 0.00 0.00 39 1011.0
20260830221203 99 104 0.0 0.0 0.00 0.00 0.00 38 1011.1
20260830220704 99 138 0.0 0.0 0.00 0.00 0.00 39 1011.1
20260830220203 99 169 0.0 0.0 0.00 0.00 0.00 39 1011.2
20260830215204 99 123 0.0 0.0 0.00 0.00 0.00 39 1011.2
20260830214704 99 33 0.0 0.0 0.00 0.00 0.00 40 1011.2
20260830214203 99 108 0.0 0.0 0.00 0.00 0.00 39 1011.3
20260830213704 99 107 0.0 0.0 0.00 0.00 0.00 39 1011.4
20260830213204 99 103 0.0 0.0 0.00 0.00 0.00 40 1011.4
20260830212704 99 78 0.0 0.0 0.00 0.00 0.00 40 1011.5
20260830212203 99 111 0.0 0.0 0.00 0.00 0.00 40 1011.7
20260830211703 99 111 0.0 0.0 0.00 0.00 0.00 40 1011.7
20260830211204 100 98 0.0 0.0 0.00 0.00 0.00 39 1011.7
20260830210704 100 126 0.0 0.0 0.00 0.00 0.00 40 1011.9
20260830210203 100 180 0.0 0.0 0.00 0.00 0.00 38 1011.9
20260830205704 99 139 0.0 0.0 0.00 0.00 0.00 39 1012.1
20260830205203 99 100 0.0 0.0 0.00 0.00 0.00 42 1012.2
20260830204704 99 101 0.0 0.0 0.00 0.00 0.00 41 1012.3
20260830204204 100 101 0.0 0.0 0.00 0.00 0.00 40 1012.3
20260830203703 100 94 0.0 0.0 0.00 0.00 0.00 40 1012.4
20260830203203 100 127 0.0 0.0 0.00 0.00 0.00 40 1012.4
20260830201703 98 147 0.0 0.0 0.00 0.00 0.00 42 1012.7
20260830201203 99 169 0.0 0.0 0.00 0.00 0.00 42 1012.8
20260830200704 99 160 0.0 0.0 0.00 0.00 0.00 42 1012.9
20260830200203 98 40 0.0 0.0 0.00 0.00 0.00 43 1012.9
20260830195704 98 132 0.0 0.0 0.00 0.00 0.00 43 1012.9
20260830195203 98 185 0.0 0.0 0.00 0.00 0.00 44 1013.1
20260830194704 98 200 0.0 0.0 0.00 0.00 0.00 44 1013.1
20260830194204 97 180 0.0 0.0 0.00 0.00 0.00 45 1013.3
20260830193703 97 101 0.0 0.0 0.00 0.00 0.00 45 1013.3
20260830192703 97 177 0.0 0.0 0.00 0.00 0.00 44 1013.5
20260830191703 96 37 0.0 0.0 0.00 0.00 0.00 47 1013.8
20260830191204 95 127 0.0 0.0 0.00 0.00 0.00 49 1013.9
20260830190704 95 127 0.0 0.0 0.00 0.00 0.00 47 1014.0
20260830190204 95 127 0.0 0.0 0.00 0.00 0.00 48 1014.1
20260830185703 95 106 0.0 0.0 0.00 0.00 0.00 48 1014.1
20260830185204 95 148 0.0 0.0 0.00 0.00 0.00 48 1014.2
20260830184703 94 182 0.0 0.0 0.00 0.00 0.00 48 1014.2
20260830184203 94 41 0.0 0.0 0.00 0.00 0.00 50 1014.3
20260830183704 94 41 0.0 0.0 0.00 0.00 0.00 49 1014.4
20260830183204 94 199 0.0 0.0 0.00 0.00 0.00 50 1014.5
20260830182703 94 182 0.0 0.0 0.00 0.00 0.00 50 1014.6
20260830181703 94 133 0.0 0.0 0.00 0.00 0.00 52 1014.7
20260830180703 93 125 0.0 0.0 0.00 0.00 0.00 54 1014.9
20260830175703 93 150 0.0 0.0 0.00 0.00 0.00 55 1015.1
20260830175204 93 149 0.0 0.0 0.00 0.00 0.00 56 1015.2
20260830174204 92 185 0.0 0.0 0.00 0.00 0.00 55 1015.4
20260830173704 92 193 0.0 0.0 0.00 0.00 0.00 56 1015.4
20260830173204 92 187 0.0 0.0 0.00 0.00 0.00 56 1015.6
20260830172703 92 173 0.0 0.0 0.00 0.00 0.00 57 1015.6
20260830172204 91 168 0.0 0.0 0.00 0.00 0.00 57 1015.7
20260830171703 91 195 0.0 0.0 0.00 0.00 0.00 58 1015.8
20260830171203 91 136 0.0 0.0 0.00 0.00 0.00 58 1015.9
20260830170703 91 135 0.0 0.0 0.00 0.00 0.00 58 1015.9
20260830170203 91 191 0.0 0.0 0.00 0.00 0.00 58 1016.0
20260830165703 91 168 0.0 0.0 0.00 0.00 0.00 60 1016.0
20260830165204 90 195 0.0 0.0 0.00 0.00 0.00 60 1016.1
20260830164704 90 128 0.0 0.0 0.00 0.00 0.00 61 1016.2
20260830164204 89 116 0.0 0.0 0.00 0.00 0.00 65 1016.2
20260830163703 88 198 0.0 0.0 0.00 0.00 0.00 65 1016.3
20260830163204 88 199 0.0 0.0 0.00 0.00 0.00 65 1016.4
20260830162203 89 148 0.0 0.0 0.00 0.00 0.00 64 1016.4
20260830161704 88 189 0.0 0.0 0.00 0.00 0.00 65 1016.3
20260830161203 88 183 0.0 0.0 0.00 0.00 0.00 69 1016.4
20260830160703 87 184 0.0 0.0 0.00 0.00 0.00 69 1016.4
20260830160203 86 82 0.0 0.0 0.00 0.00 0.00 71 1016.4
20260830155204 85 176 0.0 0.0 0.00 0.00 0.00 74 1016.4
20260830154203 84 162 0.0 0.0 0.00 0.00 0.00 76 1016.2
20260830153704 84 185 0.0 0.0 0.00 0.00 0.00 78 1016.2
20260830153204 83 183 0.0 0.0 0.00 0.00 0.00 80 1016.2
20260830152703 83 183 0.0 0.0 0.00 0.00 0.00 80 1016.1
20260830152204 83 183 0.0 0.0 0.00 0.00 0.00 80 1016.2
20260830151704 83 180 0.0 0.0 0.00 0.00 0.00 81 1016.2
20260830151204 82 177 0.0 0.0 0.00 0.00 0.00 82 1016.2
20260830150703 82 194 0.0 0.0 0.00 0.00 0.00 82 1016.2
20260830150204 82 178 0.0 0.0 0.00 0.00 0.00 84 1016.1
20260830145204 81 226 0.0 0.0 0.00 0.00 0.00 87 1016.1
20260830144703 80 254 0.0 0.0 0.00 0.00 0.00 88 1016.1
20260830144203 80 222 0.0 0.0 0.00 0.00 0.00 89 1016.1
20260830143704 80 247 0.0 0.0 0.00 0.00 0.00 90 1016.2
20260830143204 79 164 0.0 0.0 0.00 0.00 0.00 91 1016.2
20260830142703 79 164 0.0 0.0 0.00 0.00 0.00 91 1016.2
20260830142204 79 164 0.0 0.0 0.00 0.00 0.00 92 1016.1
20260830141703 78 164 0.0 0.0 0.00 0.00 0.00 92 1016.1
20260830140704 78 164 0.0 0.0 0.00 0.00 0.00 93 1016.0
20260830135203 77 164 0.0 0.0 0.00 0.00 0.00 93 1016.0
20260830134704 77 164 0.0 0.0 0.00 0.00 0.00 93 1015.9
20260830134203 76 164 0.0 0.0 0.00 0.00 0.00 94 1016.0
20260830133703 76 164 0.0 0.0 0.00 0.00 0.00 94 1016.0
20260830133204 76 164 0.0 0.0 0.00 0.00 0.00 94 1016.0
20260830132704 76 164 0.0 0.0 0.00 0.00 0.00 94 1015.9
20260830132203 75 164 0.0 0.0 0.00 0.00 0.00 94 1015.9
20260830131704 75 164 0.0 0.0 0.00 0.00 0.00 94 1015.8
20260830131204 75 164 0.0 0.0 0.00 0.00 0.00 94 1015.8
20260830130204 74 164 0.0 0.0 0.00 0.00 0.00 94 1015.7
20260830125203 74 164 0.0 0.0 0.00 0.00 0.00 93 1015.8
20260830124704 74 164 0.0 0.0 0.00 0.00 0.00 93 1015.7
20260830123703 74 164 0.0 0.0 0.00 0.00 0.00 93 1015.6
20260830123204 74 164 0.0 0.0 0.00 0.00 0.00 93 1015.5
20260830122703 74 164 0.0 0.0 0.00 0.00 0.00 93 1015.4
20260830122204 73 164 0.0 0.0 0.00 0.00 0.00 92 1015.3
20260830121703 73 164 0.0 0.0 0.00 0.00 0.00 92 1015.3
20260830121204 74 164 0.0 0.0 0.00 0.00 0.00 92 1015.2
20260830120704 74 164 0.0 0.0 0.00 0.00 0.00 92 1015.2
20260830120204 74 164 0.0 0.0 0.00 0.00 0.00 92 1015.1
20260830115204 74 164 0.0 0.0 0.00 0.00 0.00 92 1015.2
20260830114704 74 164 0.0 0.0 0.00 0.00 0.00 92 1015.0
20260830113703 74 164 0.0 0.0 0.00 0.00 0.00 92 1015.0
20260830113203 74 164 0.0 0.0 0.00 0.00 0.00 91 1015.0
20260830112704 74 164 0.0 0.0 0.00 0.00 0.00 91 1015.0
20260830112203 74 164 0.0 0.0 0.00 0.00 0.00 91 1015.1
20260830111704 74 164 0.0 0.0 0.00 0.00 0.00 92 1015.0
20260830111204 74 164 0.0 0.0 0.00 0.00 0.00 91 1015.0
20260830110703 74 164 0.0 0.0 0.00 0.00 0.00 91 1014.9
20260830110203 74 164 0.0 0.0 0.00 0.00 0.00 91 1014.9
20260830105203 74 164 0.0 0.0 0.00 0.00 0.00 91 1014.8
20260830104704 74 164 0.0 0.0 0.00 0.00 0.00 91 1014.8
20260830104204 75 164 0.0 0.0 0.00 0.00 0.00 91 1014.7
20260830103703 75 164 0.0 0.0 0.00 0.00 0.00 91 1014.7
20260830103203 75 164 0.0 0.0 0.00 0.00 0.00 91 1014.7
20260830102704 75 164 0.0 0.0 0.00 0.00 0.00 91 1014.7
20260830101703 75 164 0.0 0.0 0.00 0.00 0.00 90 1014.7
20260830101204 75 164 0.0 0.0 0.00 0.00 0.00 90 1014.7
20260830095203 75 164 0.0 0.0 0.00 0.00 0.00 89 1014.5
20260830094704 75 164 0.0 0.0 0.00 0.00 0.00 89 1014.6
20260830094203 75 164 0.0 0.0 0.00 0.00 0.00 89 1014.5
20260830093704 75 164 0.0 0.0 0.00 0.00 0.00 88 1014.5
20260830093204 76 164 0.0 0.0 0.00 0.00 0.00 89 1014.5
20260830092704 76 164 0.0 0.0 0.00 0.00 0.00 88 1014.5
20260830092203 76 164 0.0 0.0 0.00 0.00 0.00 88 1014.5
20260830091704 76 164 0.0 0.0 0.00 0.00 0.00 87 1014.4
20260830091204 76 164 0.0 0.0 0.00 0.00 0.00 87 1014.5
20260830090703 76 164 0.0 0.0 0.00 0.00 0.00 87 1014.6
20260830090203 76 164 0.0 0.0 0.00 0.00 0.00 87 1014.5
20260830085704 76 164 0.0 0.0 0.00 0.00 0.00 87 1014.6
20260830085203 76 164 0.0 0.0 0.00 0.00 0.00 86 1014.6
20260830084704 76 164 0.0 0.0 0.00 0.00 0.00 86 1014.5
20260830084203 77 164 0.0 0.0 0.00 0.00 0.00 86 1014.5
20260830083204 77 164 0.0 0.0 0.00 0.00 0.00 85 1014.5
20260830082704 77 164 0.0 0.0 0.00 0.00 0.00 85 1014.6
20260830082204 77 164 0.0 0.0 0.00 0.00 0.00 85 1014.6
20260830081703 77 164 0.0 0.0 0.00 0.00 0.00 85 1014.6
20260830081204 77 164 0.0 0.0 0.00 0.00 0.00 84 1014.6
20260830080703 77 164 0.0 0.0 0.00 0.00 0.00 84 1014.7
20260830080204 78 164 0.0 0.0 0.00 0.00 0.00 84 1014.8
20260830075703 78 164 0.0 0.0 0.00 0.00 0.00 84 1014.8
20260830075204 78 164 0.0 0.0 0.00 0.00 0.00 83 1014.8
20260830074704 78 164 0.0 0.0 0.00 0.00 0.00 83 1014.8
20260830074203 78 164 0.0 0.0 0.00 0.00 0.00 82 1014.9
20260830073204 79 164 0.0 0.0 0.00 0.00 0.00 81 1014.9
20260830072204 79 164 0.0 0.0 0.00 0.00 0.00 80 1015.0
20260830071704 79 164 0.0 0.0 0.00 0.00 0.00 80 1015.0
20260830071204 79 164 0.0 0.0 0.00 0.00 0.00 80 1015.0
20260830065704 80 164 0.0 0.0 0.00 0.00 0.00 79 1015.0
20260830065204 80 164 0.0 0.0 0.00 0.00 0.00 79 1015.0
20260830064704 80 164 0.0 0.0 0.00 0.00 0.00 78 1014.9
20260830064204 80 164 0.0 0.0 0.00 0.00 0.00 78 1014.9
20260830063703 80 164 0.0 0.0 0.00 0.00 0.00 77 1014.9
20260830063203 80 164 0.0 0.0 0.00 0.01 0.00 77 1015.0
20260830062704 81 164 0.0 0.0 0.00 0.01 0.00 77 1015.0
20260830062204 81 164 0.0 0.0 0.00 0.01 0.00 76 1015.0
20260830061703 81 164 0.0 0.0 0.00 0.01 0.00 76 1015.0
20260830061204 81 164 0.0 0.0 0.00 0.01 0.00 76 1015.0
20260830060704 81 164 0.0 0.0 0.00 0.01 0.00 75 1015.0
20260830060204 81 164 0.0 0.0 0.00 0.01 0.00 75 1015.0
20260830055704 81 150 0.0 0.0 0.00 0.01 0.00 75 1014.9
20260830055203 82 147 0.0 0.0 0.00 0.01 0.00 75 1015.0
20260830054704 82 147 0.0 0.0 0.00 0.01 0.00 75 1014.9
20260830054204 82 147 0.0 0.0 0.00 0.01 0.00 75 1014.9
20260830053703 82 147 0.0 0.0 0.00 0.01 0.00 74 1014.9
20260830053203 82 147 0.0 0.0 0.00 0.01 0.00 74 1014.8
20260830052704 82 147 0.0 0.0 0.00 0.01 0.00 75 1014.9
20260830052204 82 147 0.0 0.0 0.00 0.01 0.00 75 1014.9
20260830051703 82 147 0.0 0.0 0.00 0.01 0.00 75 1014.8
20260830051204 83 147 0.0 0.0 0.00 0.01 0.00 75 1014.8
20260830050203 83 147 0.0 0.0 0.00 0.01 0.00 75 1014.7
20260830045704 83 147 0.0 0.0 0.00 0.01 0.01 75 1014.7
20260830045203 83 147 0.0 0.0 0.00 0.01 0.01 75 1014.8
20260830044704 83 147 0.0 0.0 0.00 0.01 0.01 74 1014.7
20260830044204 84 147 0.0 0.0 0.00 0.01 0.01 73 1014.8
20260830043704 84 147 0.0 0.0 0.00 0.01 0.01 73 1014.7
20260830043203 84 147 0.0 0.0 0.00 0.01 0.01 73 1014.7
20260830042703 84 147 0.0 0.0 0.00 0.01 0.01 73 1014.7
20260830042203 84 147 0.0 0.0 0.00 0.01 0.01 73 1014.7
20260830041703 84 147 0.0 0.0 0.00 0.01 0.01 72 1014.7
20260830041204 84 147 0.0 0.0 0.00 0.01 0.01 72 1014.7
20260830040703 84 147 0.0 0.0 0.00 0.01 0.01 72 1014.7
20260830040204 85 147 0.0 0.0 0.00 0.01 0.01 72 1014.6
20260830035703 85 147 0.0 0.0 0.00 0.01 0.01 72 1014.7
20260830035203 85 147 0.0 0.0 0.00 0.01 0.01 71 1014.7
20260830034704 85 147 0.0 0.0 0.00 0.01 0.01 70 1014.6
20260830034203 85 147 0.0 0.0 0.00 0.01 0.01 70 1014.6
20260830033704 85 147 0.0 0.0 0.00 0.01 0.01 69 1014.6
20260830033203 86 147 0.0 0.0 0.00 0.01 0.01 69 1014.4
20260830032204 86 147 0.0 0.0 0.00 0.01 0.01 68 1014.4
20260830031704 86 147 0.0 0.0 0.00 0.01 0.01 68 1014.3
20260830031204 86 147 0.0 0.0 0.00 0.01 0.01 67 1014.3
20260830030703 86 147 0.0 0.0 0.00 0.01 0.01 67 1014.3
20260830030204 87 150 0.0 0.0 0.00 0.01 0.01 66 1014.2
20260830025704 87 183 0.0 0.0 0.00 0.01 0.01 66 1014.2
20260830024704 87 183 0.0 0.0 0.00 0.01 0.01 65 1014.0
20260830024203 87 183 0.0 0.0 0.00 0.01 0.01 64 1013.9
20260830023704 87 183 0.0 1.0 0.00 0.01 0.01 64 1013.8
20260830023204 87 166 0.0 0.0 0.00 0.01 0.01 64 1013.8
20260830022703 88 167 0.0 0.0 0.00 0.01 0.01 63 1013.7
20260830022204 88 111 0.0 0.0 0.00 0.01 0.01 63 1013.5
20260830021203 89 111 0.0 0.0 0.00 0.01 0.01 61 1013.4
20260830020704 89 111 0.0 0.0 0.00 0.01 0.01 61 1013.3
20260830020203 89 110 0.0 2.0 0.00 0.01 0.01 60 1013.2
20260830015203 89 113 0.0 0.0 0.00 0.01 0.01 58 1013.1
20260830014704 90 113 0.0 0.0 0.00 0.01 0.01 56 1013.0
20260830014203 90 114 0.0 0.0 0.00 0.01 0.01 54 1012.9
20260830013704 90 114 0.0 0.0 0.00 0.01 0.01 53 1012.8
20260830013204 90 114 0.0 0.0 0.00 0.01 0.01 52 1012.6
20260830012704 91 114 0.0 0.0 0.00 0.01 0.01 52 1012.5
20260830012204 91 114 0.0 0.0 0.00 0.01 0.01 52 1012.4
20260830010204 92 114 0.0 0.0 0.00 0.01 0.01 49 1012.4
20260830005704 92 114 0.0 0.0 0.00 0.01 0.01 48 1012.4